Regional Weather Roundup
Issued by NWS

Home | Current Version | Previous Version | Text Only | Print | Product List | Glossary On
Versions: 1 2 3 4 5 6 7 8 9 10 11 12 13 14 15 16 17 18 19 20 21 22 23 24 25 26 27 28 29 30 31 32 33 34 35 36 37 38 39 40 41 42 43 44 45 46 47 48 49 50
000
ASUS43 KDTX 031310
RWRMI
MICHIGAN HOURLY REGIONAL WEATHER ROUNDUP
NATIONAL WEATHER SERVICE DETROIT/PONTIAC MI
900 AM EDT THU SEP 03 2015

NOTE: "FAIR" INDICATES FEW OR NO CLOUDS BELOW 12,000 FEET WITH NO
SIGNIFICANT WEATHER AND/OR OBSTRUCTION TO VISIBILITY.

MIZ047>049-052>055-059>063-066>070-074>076-081>083-031400-
SOUTHEAST LOWER MICHIGAN

CITY           SKY/WX    TMP DP  RH WIND       PRES   REMARKS
ADRIAN         MOSUNNY   73  69  87 SW5       30.00S FOG
ALMA           PTSUNNY   73  69  89 CALM      29.94F
ANN ARBOR      SUNNY     74  70  87 MISG      29.98F FOG
BAD AXE        FOG       68  67  99 CALM      29.97F VSB<1/4
DETROIT CITY   SUNNY     75  67  76 CALM      29.98F
DETROIT        MOSUNNY   75  69  81 CALM      29.99S HAZE
FLINT          SUNNY     76  68  76 SE3       29.97F
GROSSE ILE     SUNNY     75  72  88 CALM      29.97S
HILLSDALE      MOSUNNY   76  72  89 SW3       30.01R
HOWELL         SUNNY     74  71  88 SW5       29.98S FOG

CITY           SKY/WX    TMP DP  RH WIND       PRES   REMARKS
JACKSON        MOSUNNY   74  69  85 SW6       29.98F
LAMBERTVILLE   MOSUNNY   76  69  80 W3        29.99S
LANSING          N/A     73  70  90 S6        29.96F FOG
LAPEER         NOT AVBL
MASON          SUNNY     73  69  85 S3        29.97F FOG
MONROE         SUNNY     74  70  86 CALM      29.98S
MT. CLEMENS    MOSUNNY   73  68  82 CALM      29.96S
PONTIAC        MOSUNNY   72  69  90 S5        29.98F
PORT HOPE        N/A     69  69 100 SE3       29.95F
PORT HURON     SUNNY     70  70 100 CALM      29.97S
TRI CITIES     PTSUNNY   71  66  84 S5        29.96S
YPSILANTI      SUNNY     77  73  87 CALM      29.99S
$$
MIZ043>046-050>051-056>058-064>065-071>073-077>080-031400-
SOUTHWEST LOWER MICHIGAN

CITY           SKY/WX    TMP DP  RH WIND       PRES   REMARKS
BATTLE CREEK   MOSUNNY   74  69  85 S8        29.97F
BENTON HARBOR  SUNNY     75  69  81 S6        29.96S
BIG RAPIDS     LGT RAIN  65  64  96 N3        29.95S
COLDWATER      SUNNY     74  70  88 SW6       29.99S
HOLLAND        PTSUNNY   77  71  82 SW6       29.95R
GRAND RAPIDS   PTSUNNY   76  71  85 SW7       29.95S
KALAMAZOO      MOSUNNY   74  69  85 SW9       29.97F
MARSHALL       SUNNY     74  69  85 SW6       29.98S
MUSKEGON       CLOUDY    75  68  78 SW10      29.92F
$$
MIZ016>042-031400-
NORTHERN LOWER MICHIGAN

CITY           SKY/WX    TMP DP  RH WIND       PRES   REMARKS
ALPENA         CLOUDY    67  65  93 NW5       29.98R
BEAVER ISLAND  CLOUDY    67  64  92 E10G17    29.94F
BELLAIRE       LGT RAIN  66  64  93 CALM      29.94S
CADILLAC       HVY RAIN  66  65  96 E3        29.94F
CHARLEVOIX     CLOUDY    67  65  96 E9        29.96F
FRANKFORT      CLOUDY    68  67  97 SE3       29.90R
GAYLORD        LGT RAIN  64  64 100 NE9       29.98F
GRAYLING       HVY RAIN  65  64  97 NE5       29.97F
HARBOR SPRINGS DRIZZLE   65  64  96 E7        29.96F
HOUGHTON LAKE  RAIN      66  65  96 E10       29.94F FOG
MANISTEE       CLOUDY    66  63  88 S3        29.90F
OSCODA         PTSUNNY   72  69  91 CALM      29.95S
PELLSTON       RAIN      65  64  97 CALM      29.98F FOG
TRAVERSE CITY  RAIN      69  66  90 SE3       29.90S FOG
$$
MIZ007>008-015-031400-
EASTERN UPPER MICHIGAN

CITY           SKY/WX    TMP DP  RH WIND       PRES   REMARKS
KINROSS        CLOUDY    66  64  94 NE3       29.99S
MACKINAC ISLAN RAIN      64  64  97 NE8       29.97F
NEWBERRY       CLOUDY    64  64  99 NE6       29.96F
S. S. MARIE    CLOUDY    67  64  90 CALM      29.99S
$$
MIZ004>006-011>014-085-031400-
CENTRAL UPPER MICHIGAN

CITY           SKY/WX    TMP DP  RH WIND       PRES   REMARKS
MANISTIQUE     PTSUNNY   68  64  85 E6        29.93F
ESCANABA       CLOUDY    66  64  94 N6        29.93F
MENOMINEE      CLOUDY    66  63  88 NE7       29.91S
SAWYER-GWINN   CLOUDY    63  61  94 NE6       29.99S
$$
MIZ001>003-009>011-084-031400-
WESTERN UPPER MICHIGAN

CITY           SKY/WX    TMP DP  RH WIND       PRES   REMARKS
IRON MOUNTAIN  CLOUDY    65  63  93 VRB5      29.96S FOG
HOUGHTON       SUNNY     61  59  93 E6        29.99S
COPPER HARBOR    N/A     61  56  83 CALM      29.99S
IRONWOOD       CLOUDY    61  61 100 CALM      29.97S VSB<1/4
$$

ABBREVIATIONS USED IN REMARKS
   TC - TEMPERATURE IN CELSIUS
  WCI - WIND CHILL INDEX
   HX - HEAT INDEX
  VSB - VISIBILITY




USA.gov is the U.S. government's official web portal to all federal, state and local government web resources and services.